Latest Weather Observations for Scotts Peak

IDT60801

Issued at 6:05 pm EST Wednesday 23 April 2014 (issued every 30 minutes, with the page automatically refreshed every 10 minutes)

About weather observations | Map of weather stations | Latest weather observations for TAS | Other Formats
Station Details ID: 097083 Name: SCOTTS PEAK DAM Lat: -43.04 Lon: 146.27 Height: 408.0 m
Data from the previous 72 hours. | See also: Recent months at Scotts Peak
Date/Time
EST
Temp
°C
App
Temp
°C
Dew
Point
Rel
Hum
%
Delta-T
°C
Wind Press
QNH
hPa
Press
MSL
hPa
Rain
since 9 am
mm
Dir
 
Spd
km/h
Gust
km/h
Spd
kts
Gust
kts
23/06:00pm 10.8 3.3 6.4 74 2.1 NNW 35 48 19 26 - - 0.0
23/05:30pm 10.7 3.3 6.6 76 2.0 NNW 35 48 19 26 - - 0.0
23/05:00pm 11.1 3.7 6.6 74 2.2 NNW 35 46 19 25 - - 0.0
23/04:30pm 11.4 3.6 6.7 73 2.3 NNW 37 48 20 26 - - 0.0
23/04:00pm 11.7 4.6 6.6 71 2.5 NNW 33 43 18 23 - - 0.0
23/03:30pm 12.7 4.7 7.6 71 2.5 NNW 39 46 21 25 - - 0.0
23/03:00pm 11.5 3.0 7.0 74 2.2 NNW 41 54 22 29 - - 0.0
23/02:30pm 10.8 4.1 7.3 79 1.7 NNW 32 39 17 21 - - 0.0
23/02:00pm 10.3 4.4 7.5 83 1.4 NW 28 39 15 21 - - 0.0
23/01:30pm 10.9 4.1 6.8 76 2.0 NNW 32 44 17 24 - - 0.0
23/01:00pm 11.5 4.2 7.0 74 2.2 NNW 35 44 19 24 - - 0.0
23/12:30pm 12.1 3.6 7.0 71 2.5 NNW 41 54 22 29 - - 0.0
23/12:00pm 11.8 3.2 6.7 71 2.5 NNW 41 50 22 27 - - 0.0
23/11:30am 11.2 3.1 7.1 76 2.0 NNW 39 48 21 26 - - 0.0
23/11:00am 10.9 2.8 6.8 76 2.0 NNW 39 48 21 26 - - 0.0
23/10:30am 10.9 3.2 7.2 78 1.8 NNW 37 46 20 25 - - 0.0
23/10:00am 10.3 3.6 7.2 81 1.5 NNW 32 39 17 21 - - 0.0
23/09:30am 10.4 4.9 7.6 83 1.4 N 26 33 14 18 - - 0.0
23/09:00am 8.7 3.0 6.5 86 1.0 N 26 32 14 17 - - 1.0
23/08:30am 8.0 2.3 6.6 91 0.7 N 26 30 14 16 - - 1.0
23/08:00am 7.5 2.1 6.4 93 0.5 N 24 30 13 16 - - 1.0
23/07:30am 7.2 2.2 6.5 95 0.3 N 22 32 12 17 - - 1.0
23/07:00am 6.9 1.1 6.2 95 0.3 N 26 32 14 17 - - 1.0
23/06:30am 6.6 1.7 5.2 91 0.6 NNW 20 26 11 14 - - 1.0
23/06:00am 7.3 2.5 5.6 89 0.8 WNW 20 22 11 12 - - 1.0
23/05:30am 6.6 2.4 5.7 94 0.4 NNW 17 20 9 11 - - 1.0
23/05:00am 6.4 3.9 4.6 88 0.8 NW 7 11 4 6 - - 1.0
23/04:30am 6.3 3.0 4.5 88 0.8 NW 11 15 6 8 - - 1.0
23/04:00am 6.8 1.1 5.0 88 0.8 NW 24 30 13 16 - - 1.0
23/03:30am 6.7 1.8 5.0 89 0.8 NNW 20 24 11 13 - - 1.0
23/03:00am 6.9 2.1 4.4 84 1.1 WNW 19 26 10 14 - - 1.0
23/02:30am 7.9 0.4 4.5 79 1.5 WNW 33 39 18 21 - - 1.0
23/02:00am 8.0 0.8 5.8 86 1.0 NW 33 39 18 21 - - 1.0
23/01:30am 7.9 0.8 5.5 85 1.1 NW 32 39 17 21 - - 1.0
23/01:00am 8.1 -0.2 5.9 86 1.0 NW 39 50 21 27 - - 1.0
23/12:30am 8.4 0.8 6.0 85 1.1 NW 35 43 19 23 - - 1.0
23/12:00am 8.3 1.1 6.1 86 1.0 NW 33 43 18 23 - - 1.0
 
Date/Time
EST
Temp
°C
App
Temp
°C
Dew
Point
Rel
Hum
%
Delta-T
°C
Wind Press
QNH
hPa
Press
MSL
hPa
Rain
since 9 am
mm
Dir
 
Spd
km/h
Gust
km/h
Spd
kts
Gust
kts
22/11:30pm 8.4 -1.3 5.7 83 1.3 NW 46 56 25 30 - - 1.0
22/11:00pm 8.2 -0.7 6.8 91 0.7 NW 43 50 23 27 - - 1.0
22/10:30pm 8.5 -0.4 6.8 89 0.8 NW 43 54 23 29 - - 1.0
22/10:00pm 8.5 0.0 6.8 89 0.8 NW 41 50 22 27 - - 1.0
22/09:30pm 8.5 -0.1 6.6 88 0.9 NW 41 50 22 27 - - 0.8
22/09:00pm 8.5 -0.4 7.0 90 0.7 NW 43 56 23 30 - - 0.8
22/08:30pm 8.2 -0.4 6.7 90 0.7 NW 41 48 22 26 - - 0.8
22/08:00pm 8.2 -0.3 6.8 91 0.7 NW 41 48 22 26 - - 0.8
22/07:30pm 8.3 0.2 6.8 90 0.7 NW 39 46 21 25 - - 0.8
22/07:00pm 8.4 0.7 7.2 92 0.6 NW 37 43 20 23 - - 0.8
22/06:30pm 8.4 1.1 7.2 92 0.6 NW 35 48 19 26 - - 0.8
22/06:13pm 8.7 1.4 7.2 90 0.7 WNW 35 56 19 30 - - 0.8
22/06:00pm 8.3 1.4 7.4 94 0.4 NW 33 48 18 26 - - 0.8
22/05:30pm 8.3 1.0 7.4 94 0.4 NW 35 46 19 25 - - 0.8
22/05:00pm 9.2 -0.9 7.5 89 0.8 NW 50 69 27 37 - - 0.6
22/04:50pm 10.0 1.2 7.1 82 1.4 WNW 43 63 23 34 - - 0.6
22/04:30pm 10.4 3.0 6.7 78 1.8 NW 35 50 19 27 - - 0.6
22/04:07pm 10.6 1.9 6.2 74 2.1 NW 41 59 22 32 - - 0.6
22/04:00pm 10.9 1.8 5.7 70 2.5 WNW 43 54 23 29 - - 0.6
22/03:45pm 10.8 2.0 5.6 70 2.5 NW 41 59 22 32 - - 0.6
22/03:30pm 11.1 2.0 6.0 71 2.4 WNW 43 59 23 32 - - 0.6
22/03:00pm 12.6 4.9 7.3 70 2.6 WNW 37 57 20 31 - - 0.6
22/02:30pm 11.7 1.4 6.4 70 2.6 NW 50 69 27 37 - - 0.6
22/02:04pm 11.8 3.5 5.9 67 2.8 NW 39 57 21 31 - - 0.6
22/02:00pm 11.3 2.1 6.4 72 2.4 NW 44 57 24 31 - - 0.6
22/01:30pm 10.8 1.8 6.6 75 2.0 NW 43 61 23 33 - - 0.6
22/01:15pm 11.9 2.8 7.0 72 2.4 NW 44 63 24 34 - - 0.6
22/01:00pm 12.5 3.8 7.6 72 2.4 NW 43 54 23 29 - - 0.6
22/12:30pm 10.8 3.0 6.7 76 2.0 WNW 37 48 20 26 - - 0.6
22/12:00pm 10.3 2.1 6.6 78 1.8 WNW 39 50 21 27 - - 0.6
22/11:30am 9.2 -0.5 7.3 88 0.9 W 48 61 26 33 - - 0.6
22/11:08am 10.2 2.1 8.8 91 0.7 W 41 59 22 32 - - 0.6
22/11:00am 10.2 1.2 8.8 91 0.7 W 46 57 25 31 - - 0.6
22/10:30am 10.8 1.7 9.9 94 0.5 WNW 48 67 26 36 - - 0.6
22/10:28am 10.7 2.0 9.8 94 0.5 WNW 46 65 25 35 - - 0.6
22/10:00am 10.5 0.9 9.4 93 0.6 W 50 63 27 34 - - 0.6
22/09:30am 11.0 4.5 10.5 97 0.3 NW 35 46 19 25 - - 0.4
22/09:00am 11.0 5.5 9.3 89 0.9 WNW 28 41 15 22 - - 5.8
22/08:30am 11.1 4.2 9.0 87 1.1 WNW 35 57 19 31 - - 5.8
22/08:07am 11.0 2.8 9.8 92 0.6 WNW 43 67 23 36 - - 5.8
22/08:00am 10.8 2.7 9.9 94 0.5 WNW 43 56 23 30 - - 5.8
22/07:36am 10.9 2.2 9.8 93 0.6 WNW 46 65 25 35 - - 5.4
22/07:30am 11.2 2.4 9.6 90 0.8 WNW 46 61 25 33 - - 5.2
22/07:05am 11.2 3.9 10.1 93 0.6 WNW 39 57 21 31 - - 5.2
22/07:00am 11.4 3.0 9.8 90 0.8 WNW 44 59 24 32 - - 5.2
22/06:30am 11.7 3.4 9.4 86 1.2 WNW 43 56 23 30 - - 5.2
22/06:00am 11.7 2.1 9.6 87 1.1 WNW 50 65 27 35 - - 5.2
22/05:53am 11.7 1.4 9.8 88 1.0 WNW 54 72 29 39 - - 5.2
22/05:30am 11.9 1.1 9.8 87 1.1 WNW 57 70 31 38 - - 5.2
22/05:00am 11.9 0.4 10.1 89 0.9 WNW 61 74 33 40 - - 5.2
22/04:30am 12.4 2.0 11.5 94 0.5 WNW 57 82 31 44 - - 5.2
22/04:02am 12.9 2.3 11.8 93 0.6 WNW 59 78 32 42 - - 4.6
22/04:00am 12.9 2.2 11.6 92 0.7 WNW 59 69 32 37 - - 4.6
22/03:30am 12.6 4.0 11.8 95 0.4 NW 48 63 26 34 - - 4.4
22/03:03am 13.2 2.8 11.4 89 1.0 NNW 57 100 31 54 - - 4.2
22/03:00am 13.3 3.5 11.5 89 1.0 NNW 54 100 29 54 - - 4.2
22/02:30am 13.2 -0.7 11.6 90 0.9 NNW 76 100 41 54 - - 4.2
22/02:00am 13.0 2.7 12.8 99 0.1 NNW 59 85 32 46 - - 4.2
22/01:49am 12.4 1.1 12.2 99 0.1 NNW 63 83 34 45 - - 4.2
22/01:45am 12.3 -0.7 12.1 99 0.1 NNW 72 80 39 43 - - 4.2
22/01:34am 11.6 3.3 11.4 99 0.1 NNW 46 67 25 36 - - 4.2
22/01:30am 11.4 3.0 11.2 99 0.1 NNW 46 59 25 32 - - 4.2
22/01:00am 10.3 3.3 10.1 99 0.1 N 37 52 20 28 - - 4.0
22/12:57am 10.0 3.8 9.9 99 0.1 N 33 52 18 28 - - 4.0
22/12:45am 9.4 3.9 9.3 99 0.1 NNW 28 41 15 22 - - 4.0
22/12:30am 8.1 6.3 8.0 99 0.0 WNW 7 15 4 8 - - 4.0
22/12:00am 6.7 3.1 6.6 99 0.0 ESE 15 20 8 11 - - 4.0
 
Date/Time
EST
Temp
°C
App
Temp
°C
Dew
Point
Rel
Hum
%
Delta-T
°C
Wind Press
QNH
hPa
Press
MSL
hPa
Rain
since 9 am
mm
Dir
 
Spd
km/h
Gust
km/h
Spd
kts
Gust
kts
21/11:30pm 6.7 4.2 6.6 99 0.0 SSE 9 13 5 7 - - 4.0
21/11:00pm 6.4 3.5 6.3 99 0.0 SSE 11 17 6 9 - - 3.8
21/10:30pm 6.4 3.5 6.3 99 0.0 SE 11 13 6 7 - - 3.2
21/10:00pm 6.5 3.2 6.2 98 0.1 ESE 13 15 7 8 - - 3.0
21/09:30pm 6.6 3.6 6.2 97 0.2 SE 11 13 6 7 - - 2.2
21/09:00pm 6.7 4.1 6.1 96 0.3 SSE 9 11 5 6 - - 2.0
21/08:30pm 6.9 4.7 6.0 94 0.4 SE 7 11 4 6 - - 1.4
21/08:00pm 7.2 4.9 5.8 91 0.6 SSE 7 11 4 6 - - 0.4
21/07:30pm 7.5 5.2 5.6 88 0.9 SE 7 9 4 5 - - 0.0
21/07:00pm 7.6 5.5 5.7 88 0.9 ESE 6 11 3 6 - - 0.0
21/06:30pm 7.5 4.5 6.0 90 0.7 ESE 11 13 6 7 - - 0.0
21/06:00pm 7.8 5.5 5.9 88 0.9 ESE 7 9 4 5 - - 0.0
21/05:30pm 8.4 6.3 5.7 83 1.3 ENE 6 7 3 4 - - 0.0
21/05:00pm 8.4 5.9 6.4 87 0.9 N 9 13 5 7 - - 0.0
21/04:30pm 8.4 4.6 5.9 84 1.2 N 15 19 8 10 - - 0.0
21/04:00pm 9.2 5.4 5.8 79 1.6 N 15 20 8 11 - - 0.0
21/03:30pm 9.9 6.3 5.1 72 2.2 N 13 20 7 11 - - 0.0
21/03:00pm 10.6 7.9 5.4 70 2.4 NNE 9 20 5 11 - - 0.0
21/02:30pm 10.0 8.4 4.4 68 2.6 E 2 11 1 6 - - 0.0
21/02:00pm 10.6 8.8 5.6 71 2.4 ENE 4 9 2 5 - - 0.0
21/01:30pm 9.4 6.5 4.6 72 2.2 ESE 9 13 5 7 - - 0.0
21/01:00pm 8.8 5.9 4.6 75 1.9 ESE 9 13 5 7 - - 0.0
21/12:30pm 8.8 6.0 5.0 77 1.7 SE 9 13 5 7 - - 0.0
21/12:00pm 8.1 4.8 4.5 78 1.6 ESE 11 15 6 8 - - 0.0
21/11:30am 8.1 5.2 4.5 78 1.6 ESE 9 15 5 8 - - 0.0
21/11:00am 7.4 3.7 4.2 80 1.4 ESE 13 17 7 9 - - 0.0
21/10:30am 6.6 3.6 4.3 85 1.0 SE 9 11 5 6 - - 0.0
21/10:00am 6.2 2.9 4.5 89 0.8 SE 11 13 6 7 - - 0.0
21/09:30am 4.9 1.4 3.4 90 0.6 SE 11 17 6 9 - - 0.0
21/09:00am 4.2 0.6 3.2 93 0.4 SSE 11 13 6 7 - - 6.2
21/08:30am 3.6 0.0 2.7 94 0.4 SE 11 15 6 8 - - 6.2
21/08:00am 3.6 0.0 2.7 94 0.4 SE 11 13 6 7 - - 6.2
21/07:30am 3.3 0.0 2.4 94 0.4 SE 9 11 5 6 - - 6.2
21/07:00am 3.1 -0.2 2.2 94 0.4 SE 9 13 5 7 - - 6.2
21/06:30am 3.3 0.3 2.1 92 0.5 SSE 7 9 4 5 - - 6.2
21/06:00am 3.0 -0.4 1.7 91 0.5 SE 9 11 5 6 - - 6.2
21/05:30am 3.2 0.1 1.4 88 0.7 SE 7 9 4 5 - - 6.2
21/05:00am 4.4 2.5 2.6 88 0.7 NW 2 6 1 3 - - 6.2
21/04:30am 2.9 -1.0 1.3 89 0.6 NNW 11 13 6 7 - - 6.2
21/04:00am 3.5 -0.4 1.4 86 0.8 NW 11 13 6 7 - - 6.2
21/03:30am 3.3 -0.5 1.5 88 0.7 NW 11 13 6 7 - - 6.2
21/03:00am 4.2 0.3 1.1 80 1.2 WNW 11 13 6 7 - - 6.2
21/02:30am 3.6 -0.5 2.1 90 0.6 NW 13 17 7 9 - - 6.2
21/02:00am 4.2 -0.3 2.4 88 0.7 WNW 15 19 8 10 - - 6.2
21/01:30am 4.2 -0.5 3.0 92 0.5 NW 17 20 9 11 - - 6.2
21/01:00am 4.3 0.3 2.7 89 0.7 NW 13 17 7 9 - - 6.2
21/12:30am 4.4 -0.1 2.1 85 0.9 WNW 15 17 8 9 - - 6.2
21/12:00am 4.6 -0.3 2.3 85 0.9 WNW 17 19 9 10 - - 6.0
 
Date/Time
EST
Temp
°C
App
Temp
°C
Dew
Point
Rel
Hum
%
Delta-T
°C
Wind Press
QNH
hPa
Press
MSL
hPa
Rain
since 9 am
mm
Dir
 
Spd
km/h
Gust
km/h
Spd
kts
Gust
kts
20/11:30pm 5.4 0.4 1.3 75 1.7 W 17 20 9 11 - - 6.0
20/11:00pm 5.5 -0.1 1.4 75 1.7 WNW 20 24 11 13 - - 6.0
20/10:30pm 5.1 -0.4 1.8 79 1.4 WNW 20 24 11 13 - - 6.0
20/10:00pm 5.1 -0.2 3.0 86 0.9 NW 20 22 11 12 - - 6.0
20/09:30pm 5.4 -0.8 2.1 79 1.4 WNW 24 32 13 17 - - 6.0
20/09:00pm 5.2 0.0 2.6 83 1.1 NW 19 24 10 13 - - 6.0
20/08:30pm 5.4 0.3 3.1 85 1.0 WNW 19 30 10 16 - - 6.0
20/08:00pm 6.3 1.9 2.9 79 1.4 WNW 15 20 8 11 - - 6.0
20/07:30pm 5.7 -0.4 3.0 83 1.1 W 24 35 13 19 - - 6.0
20/07:00pm 6.2 -0.1 3.9 85 1.0 W 26 35 14 19 - - 6.0
20/06:30pm 6.2 -0.3 4.7 90 0.7 W 28 35 15 19 - - 6.0

Other Formats:

Comma delimited format used in spreadsheet applications
http://www.bom.gov.au/fwo/IDT60801/IDT60801.95958.axf

JavaScript Object Notation format (JSON) in row-major order
http://www.bom.gov.au/fwo/IDT60801/IDT60801.95958.json